{"data":{"norad_id":63687,"intl_designator":"2025-086A","name":"HULIANWANG DIGUI-20","alt_names":[],"object_type":"PAYLOAD","status":"ACTIVE","operator":null,"country":"PRC","launch_date":"2025-04-28","launch_site_code":"WSC","launch_vehicle":null,"mission":null,"orbit_class":"UNKNOWN","rcs_meters":null,"size_class":null,"mass_kg":null,"dimensions":null,"purposes":[],"wikipedia_slug":null,"has_3d_model":false,"image_url":null,"decayed_at":null,"tle_current":{"epoch":"2026-09-21T21:03:37.480032Z","epoch_age_seconds":88702,"freshness":"FRESH","line1":"1 63687U 25086A   26264.87751713 -.00000162  00000+0 -41133-3 0  9995","line2":"2 63687  86.4981 280.5562 0001777  78.7698 281.3636 13.24412538 67671","mean_motion":13.24412538,"eccentricity":0.0001777,"inclination_deg":86.4981,"raan_deg":280.5562,"arg_perigee_deg":78.7698,"mean_anomaly_deg":281.3636,"bstar":-0.00041133,"rev_number":6767,"period_min":108.7274515065,"perigee_km":1166.57161217,"apogee_km":1169.2534781784,"semimajor_km":7546.0495451742,"source":"CELESTRAK","updated_at":"2026-09-22T09:00:29.281220Z"}}}